• în România
  • Lista ţărilor
  • Pe 7 zile
  • Temperatura apei
  • Hartă satelitară
  • Meteo pe hartă
  • Widget-uri
  • user-avatar
    Intrare

    Meteo pe oră la Córdoba

    Astăzi, 23 Septembrie, Sâmbătă

    Timp Temperatura Precipitaţii Vânt Presiune Umiditate
    00:00 +14°C° 0 mm 1 m/s 728 mmHg 59%
    01:00 +14°C° 0 mm 1 m/s 728 mmHg 60%
    02:00 +14°C° 0 mm 1 m/s 728 mmHg 59%
    03:00 +13°C° 0 mm 1 m/s 728 mmHg 59%
    04:00 +13°C° 0 mm 1 m/s 728 mmHg 60%
    05:00 +13°C° 0 mm 1 m/s 728 mmHg 60%
    06:00 +14°C° 0 mm 1 m/s 728 mmHg 57%
    07:00 +16°C° 0 mm 1 m/s 729 mmHg 54%
    08:00 +17°C° 0 mm 2 m/s 729 mmHg 51%
    09:00 +19°C° 0 mm 2 m/s 729 mmHg 45%
    10:00 +21°C° 0 mm 3 m/s 729 mmHg 40%
    11:00 +22°C° 0 mm 4 m/s 729 mmHg 35%
    12:00 +23°C° 0 mm 4 m/s 729 mmHg 33%
    13:00 +25°C° 0 mm 5 m/s 728 mmHg 32%
    14:00 +26°C° 0 mm 5 m/s 727 mmHg 31%
    15:00 +25°C° 0 mm 5 m/s 727 mmHg 33%
    16:00 +23°C° 0 mm 5 m/s 726 mmHg 35%
    17:00 +22°C° 0 mm 5 m/s 726 mmHg 37%
    18:00 +20°C° 0 mm 4 m/s 726 mmHg 43%
    19:00 +18°C° 0 mm 3 m/s 726 mmHg 49%
    20:00 +17°C° 0 mm 3 m/s 726 mmHg 55%
    21:00 +16°C° 0 mm 2 m/s 726 mmHg 59%
    22:00 +15°C° 0 mm 2 m/s 726 mmHg 62%
    23:00 +15°C° 0 mm 2 m/s 727 mmHg 66%

    Mâine, 24 Septembrie, Duminică

    Timp Temperatura Precipitaţii Vânt Presiune Umiditate
    00:00 +14°C° 0 mm 2 m/s 726 mmHg 68%
    01:00 +14°C° 0 mm 2 m/s 726 mmHg 70%
    02:00 +14°C° 0 mm 2 m/s 725 mmHg 72%
    03:00 +13°C° 0 mm 2 m/s 725 mmHg 74%
    04:00 +13°C° 0 mm 2 m/s 725 mmHg 76%
    05:00 +13°C° 0 mm 2 m/s 724 mmHg 78%
    06:00 +14°C° 0 mm 2 m/s 725 mmHg 74%
    07:00 +14°C° 0 mm 3 m/s 725 mmHg 70%
    08:00 +17°C° 0 mm 3 m/s 726 mmHg 67%
    09:00 +19°C° 0 mm 4 m/s 725 mmHg 62%
    10:00 +21°C° 0 mm 4 m/s 725 mmHg 57%
    11:00 +23°C° 0 mm 5 m/s 725 mmHg 52%
    12:00 +25°C° 0 mm 5 m/s 725 mmHg 49%
    13:00 +26°C° 0 mm 5 m/s 724 mmHg 47%
    14:00 +27°C° 0 mm 5 m/s 723 mmHg 44%
    15:00 +27°C° 0 mm 5 m/s 723 mmHg 46%
    16:00 +26°C° 0 mm 5 m/s 723 mmHg 48%
    17:00 +26°C° 0 mm 5 m/s 723 mmHg 50%
    18:00 +23°C° 0 mm 4 m/s 723 mmHg 56%
    19:00 +21°C° 0 mm 3 m/s 724 mmHg 63%
    20:00 +19°C° 0 mm 2 m/s 724 mmHg 70%
    21:00 +19°C° 0 mm 2 m/s 725 mmHg 72%
    22:00 +20°C° 0 mm 1 m/s 725 mmHg 74%
    23:00 +19°C° 0 mm 1 m/s 726 mmHg 76%

    Poimâine, 25 Septembrie, Luni

    Timp Temperatura Precipitaţii Vânt Presiune Umiditate
    00:00 +19°C° 0 mm 1 m/s 725 mmHg 76%
    01:00 +19°C° 0 mm 1 m/s 725 mmHg 77%
    02:00 +19°C° 0 mm 1 m/s 725 mmHg 77%
    03:00 +18°C° 0 mm 1 m/s 725 mmHg 78%
    04:00 +18°C° 0 mm 1 m/s 725 mmHg 79%
    05:00 +18°C° 0 mm 1 m/s 725 mmHg 79%
    06:00 +20°C° 0 mm 1 m/s 726 mmHg 73%
    07:00 +21°C° 0 mm 1 m/s 727 mmHg 68%
    08:00 +23°C° 0 mm 1 m/s 727 mmHg 62%
    09:00 +24°C° 0 mm 1 m/s 727 mmHg 57%
    10:00 +26°C° 0 mm 2 m/s 727 mmHg 53%
    11:00 +28°C° 0 mm 3 m/s 727 mmHg 48%
    12:00 +28°C° 0,1 mm 3 m/s 727 mmHg 47%
    13:00 +29°C° 0,1 mm 4 m/s 726 mmHg 46%
    14:00 +30°C° 0,1 mm 4 m/s 726 mmHg 45%
    15:00 +29°C° 0,1 mm 4 m/s 725 mmHg 47%
    16:00 +29°C° 0,1 mm 4 m/s 725 mmHg 50%
    17:00 +28°C° 0,1 mm 4 m/s 724 mmHg 52%
    18:00 +26°C° 0 mm 4 m/s 724 mmHg 59%
    19:00 +25°C° 0 mm 3 m/s 725 mmHg 65%
    20:00 +22°C° 0 mm 3 m/s 725 mmHg 71%
    21:00 +23°C° 0 mm 2 m/s 725 mmHg 74%
    22:00 +21°C° 0 mm 2 m/s 725 mmHg 77%
    23:00 +21°C° 0 mm 2 m/s 725 mmHg 80%

    26 Septembrie, Marţi

    Timp Temperatura Precipitaţii Vânt Presiune Umiditate
    00:00 +20°C° 0 mm 2 m/s 725 mmHg 81%
    01:00 +21°C° 0 mm 1 m/s 725 mmHg 81%
    02:00 +21°C° 0 mm 1 m/s 724 mmHg 82%
    03:00 +21°C° 0 mm 1 m/s 724 mmHg 85%
    04:00 +20°C° 0 mm 1 m/s 724 mmHg 87%
    05:00 +20°C° 0 mm 1 m/s 723 mmHg 89%
    06:00 +20°C° 0,4 mm 1 m/s 724 mmHg 89%
    07:00 +19°C° 0,4 mm 2 m/s 724 mmHg 88%
    08:00 +20°C° 0,4 mm 2 m/s 724 mmHg 88%
    09:00 +20°C° 1,1 mm 2 m/s 724 mmHg 89%
    10:00 +20°C° 1,1 mm 2 m/s 724 mmHg 90%
    11:00 +20°C° 1,1 mm 2 m/s 724 mmHg 90%
    12:00 +20°C° 0,4 mm 2 m/s 723 mmHg 87%
    13:00 +21°C° 0,4 mm 2 m/s 723 mmHg 84%
    14:00 +23°C° 0,4 mm 2 m/s 722 mmHg 81%
    15:00 +23°C° 0,1 mm 2 m/s 722 mmHg 83%
    16:00 +23°C° 0,1 mm 2 m/s 722 mmHg 84%
    17:00 +21°C° 0,1 mm 2 m/s 722 mmHg 85%
    18:00 +21°C° 0,3 mm 2 m/s 722 mmHg 88%
    19:00 +20°C° 0,3 mm 2 m/s 723 mmHg 92%
    20:00 +20°C° 0,3 mm 2 m/s 724 mmHg 95%
    21:00 +19°C° 0,9 mm 3 m/s 724 mmHg 95%
    22:00 +19°C° 0,9 mm 3 m/s 724 mmHg 95%
    23:00 +19°C° 0,9 mm 4 m/s 725 mmHg 95%

    27 Septembrie, Miercuri

    Timp Temperatura Precipitaţii Vânt Presiune Umiditate
    00:00 +18°C° 0,6 mm 4 m/s 725 mmHg 94%
    01:00 +17°C° 0,6 mm 4 m/s 725 mmHg 93%
    02:00 +15°C° 0,6 mm 5 m/s 725 mmHg 92%
    03:00 +15°C° 0,2 mm 5 m/s 725 mmHg 92%
    04:00 +14°C° 0,2 mm 5 m/s 725 mmHg 91%
    05:00 +13°C° 0,2 mm 4 m/s 725 mmHg 90%
    06:00 +13°C° 0,2 mm 4 m/s 726 mmHg 90%
    07:00 +13°C° 0,2 mm 4 m/s 727 mmHg 90%
    08:00 +12°C° 0,2 mm 4 m/s 727 mmHg 89%
    09:00 +13°C° 0,1 mm 4 m/s 727 mmHg 88%
    10:00 +13°C° 0,1 mm 4 m/s 727 mmHg 87%
    11:00 +13°C° 0,1 mm 3 m/s 728 mmHg 86%
    12:00 +13°C° 0,1 mm 3 m/s 727 mmHg 85%
    13:00 +13°C° 0,1 mm 3 m/s 727 mmHg 84%
    14:00 +13°C° 0,1 mm 3 m/s 726 mmHg 83%
    15:00 +15°C° 0 mm 2 m/s 726 mmHg 83%
    16:00 +15°C° 0 mm 2 m/s 726 mmHg 83%
    17:00 +15°C° 0 mm 2 m/s 726 mmHg 83%
    18:00 +15°C° 0,1 mm 2 m/s 726 mmHg 85%
    19:00 +15°C° 0,1 mm 2 m/s 727 mmHg 87%
    20:00 +14°C° 0,1 mm 2 m/s 727 mmHg 89%
    21:00 +14°C° 0 mm 1 m/s 727 mmHg 90%
    22:00 +14°C° 0 mm 1 m/s 727 mmHg 91%
    23:00 +14°C° 0 mm 1 m/s 727 mmHg 92%

    28 Septembrie, Joi

    Timp Temperatura Precipitaţii Vânt Presiune Umiditate
    00:00 +14°C° 0 mm 1 m/s 727 mmHg 92%
    01:00 +14°C° 0 mm 1 m/s 726 mmHg 93%
    02:00 +14°C° 0 mm 2 m/s 726 mmHg 93%
    03:00 +14°C° 0,1 mm 2 m/s 726 mmHg 93%
    04:00 +14°C° 0,1 mm 2 m/s 726 mmHg 94%
    05:00 +14°C° 0,1 mm 2 m/s 726 mmHg 94%
    06:00 +14°C° 0 mm 1 m/s 726 mmHg 93%
    07:00 +15°C° 0 mm 1 m/s 726 mmHg 91%
    08:00 +15°C° 0 mm 1 m/s 727 mmHg 89%
    09:00 +16°C° 0 mm 2 m/s 726 mmHg 85%
    10:00 +17°C° 0 mm 2 m/s 726 mmHg 81%
    11:00 +18°C° 0 mm 2 m/s 726 mmHg 77%
    12:00 +18°C° 0 mm 2 m/s 726 mmHg 74%
    13:00 +19°C° 0 mm 2 m/s 725 mmHg 72%
    14:00 +20°C° 0 mm 3 m/s 724 mmHg 70%
    15:00 +20°C° 0 mm 3 m/s 724 mmHg 72%
    16:00 +19°C° 0 mm 3 m/s 724 mmHg 74%
    17:00 +19°C° 0 mm 3 m/s 724 mmHg 77%
    18:00 +18°C° 0 mm 2 m/s 724 mmHg 82%
    19:00 +17°C° 0 mm 2 m/s 725 mmHg 87%
    20:00 +16°C° 0 mm 1 m/s 725 mmHg 92%
    21:00 +16°C° 0 mm 1 m/s 725 mmHg 92%
    22:00 +15°C° 0 mm 1 m/s 725 mmHg 93%
    23:00 +15°C° 0 mm 1 m/s 725 mmHg 94%
    Arată mai mult